GW2301 Weather Reports


time (UTC)temp
F
wind
direction
speed
knots
gust
knots
rain 1hr
in
rain 24hr
in
rain mn
in
humidity
%
barometer
mb
20260502233543 53 111 0.9 3.5 0.00 0.00 0.00 43 1016.1
20260502233157 53 190 0.0 2.6 0.00 0.00 0.00 44 1016.0
20260502232547 53 121 0.0 1.7 0.00 0.00 0.00 43 1015.9
20260502232020 53 167 0.9 2.6 0.00 0.00 0.00 43 1016.1
20260502231705 53 38 0.0 2.6 0.00 0.00 0.00 44 1016.0
20260502231041 53 219 0.0 1.7 0.00 0.00 0.00 44 1015.8
20260502230524 53 250 0.0 2.6 0.00 0.00 0.00 43 1015.8
20260502230204 53 57 0.9 2.6 0.00 0.00 0.00 43 1015.8
20260502225523 54 69 0.0 2.6 0.00 0.00 0.00 45 1015.8
20260502225034 54 64 0.9 5.2 0.00 0.00 0.00 42 1015.9
20260502224705 54 92 0.0 5.2 0.00 0.00 0.00 41 1015.9
20260502224028 54 25 0.9 2.6 0.00 0.00 0.00 43 1015.9
20260502223525 54 32 0.9 2.6 0.00 0.00 0.00 44 1015.7
20260502223158 54 184 0.9 3.5 0.00 0.00 0.00 40 1015.7
20260502222540 55 210 0.0 3.5 0.00 0.00 0.00 41 1015.7
20260502222035 55 251 1.7 3.5 0.00 0.00 0.00 41 1015.7
20260502221623 55 136 0.9 3.5 0.00 0.00 0.00 41 1015.7
20260502221032 55 100 0.0 5.2 0.00 0.00 0.00 42 1015.7
20260502220521 56 285 1.7 5.2 0.00 0.00 0.00 41 1015.7
20260502220209 55 350 0.0 4.3 0.00 0.00 0.00 40 1015.6
20260502215529 55 223 0.9 4.3 0.00 0.00 0.00 41 1015.5
20260502215041 55 225 0.9 4.3 0.00 0.00 0.00 40 1015.3
20260502214703 56 179 0.9 6.1 0.00 0.00 0.00 39 1015.3
20260502214047 56 227 1.7 6.1 0.00 0.00 0.00 41 1015.4
20260502213522 56 77 0.9 7.0 0.00 0.00 0.00 39 1015.3
20260502213116 55 98 2.6 7.0 0.00 0.00 0.00 40 1015.3
20260502212531 56 88 0.9 7.8 0.00 0.00 0.00 40 1015.2
20260502212041 56 214 2.6 7.8 0.00 0.00 0.00 39 1015.3
20260502211610 56 37 0.9 7.0 0.00 0.00 0.00 38 1015.4
20260502211042 55 198 0.9 5.2 0.00 0.00 0.00 40 1015.2
20260502210523 55 189 0.9 5.2 0.00 0.00 0.00 40 1015.4
20260502210136 56 320 1.7 5.2 0.00 0.00 0.00 39 1015.4
20260502205529 56 115 0.0 4.3 0.00 0.00 0.00 40 1015.3
20260502205049 56 174 1.7 6.1 0.00 0.00 0.00 38 1015.3
20260502204652 56 267 2.6 7.8 0.00 0.00 0.00 39 1015.3
20260502204034 56 208 5.2 7.8 0.00 0.00 0.00 37 1015.1
20260502203530 56 217 4.3 5.2 0.00 0.00 0.00 38 1015.5
20260502203150 56 27 0.9 4.3 0.00 0.00 0.00 40 1015.4
20260502202532 55 200 0.9 6.1 0.00 0.00 0.00 41 1015.4
20260502202022 56 234 2.6 6.1 0.00 0.00 0.00 39 1015.4
20260502201648 56 142 0.9 8.7 0.00 0.00 0.00 42 1015.6
20260502201024 56 229 1.7 8.7 0.00 0.00 0.00 39 1015.5
20260502200532 58 220 3.5 7.0 0.00 0.00 0.00 37 1015.6
20260502200154 59 200 0.9 7.8 0.00 0.00 0.00 37 1015.5
20260502195526 58 28 1.7 7.8 0.00 0.00 0.00 40 1015.6
20260502195024 57 66 0.9 9.6 0.00 0.00 0.00 40 1015.8
20260502194657 56 224 2.6 7.8 0.00 0.00 0.00 40 1015.7
20260502194028 56 221 4.3 7.8 0.00 0.00 0.00 40 1015.8
20260502193531 56 217 2.6 5.2 0.00 0.00 0.00 40 1015.7
20260502193153 57 279 1.7 6.1 0.00 0.00 0.00 41 1015.6
20260502192524 57 226 2.6 8.7 0.00 0.00 0.00 38 1015.8
20260502192038 58 225 4.3 8.7 0.00 0.00 0.00 36 1015.8
20260502191651 58 188 2.6 7.8 0.00 0.00 0.00 38 1015.9
20260502191034 57 229 1.7 6.1 0.00 0.00 0.00 39 1015.9
20260502190525 57 256 1.7 6.1 0.00 0.00 0.00 39 1016.0
20260502190202 59 234 1.7 8.7 0.00 0.00 0.00 39 1015.9
20260502185523 61 180 2.6 7.0 0.00 0.00 0.00 35 1016.0
20260502185025 59 200 2.6 7.8 0.00 0.00 0.00 37 1016.2
20260502184657 56 208 2.6 7.8 0.00 0.00 0.00 41 1016.3
20260502184031 56 188 0.9 7.0 0.00 0.00 0.00 40 1016.2
20260502183524 58 233 2.6 7.0 0.00 0.00 0.00 37 1016.2
20260502183153 59 259 3.5 7.8 0.00 0.00 0.00 37 1016.3
20260502182542 58 241 3.5 10.4 0.00 0.00 0.00 39 1016.5
20260502182024 55 184 1.7 10.4 0.00 0.00 0.00 41 1016.4
20260502181623 55 194 0.9 3.5 0.00 0.00 0.00 43 1016.5
20260502181031 54 219 0.9 2.6 0.00 0.00 0.00 45 1016.6
20260502180529 54 71 0.9 5.2 0.00 0.00 0.00 42 1016.5
20260502180154 54 226 0.9 5.2 0.00 0.00 0.00 43 1016.7
20260502170144 55 29 0.9 10.4 0.00 0.00 0.00 41 1016.7
20260502164024 56 281 1.7 11.3 0.00 0.00 0.00 40 1016.9
20260502163534 57 234 5.2 8.7 0.00 0.00 0.00 39 1016.8
20260502163140 57 254 1.7 9.6 0.00 0.00 0.00 39 1017.0
20260502162540 58 200 3.5 9.6 0.00 0.00 0.00 38 1016.7
20260502162033 57 259 1.7 7.8 0.00 0.00 0.00 41 1016.8
20260502161653 59 64 1.7 7.0 0.00 0.00 0.00 38 1016.7
20260502161034 58 108 1.7 6.1 0.00 0.00 0.00 40 1016.8
20260502160525 58 175 0.9 4.3 0.00 0.00 0.00 43 1017.1
20260502160153 56 179 0.9 5.2 0.00 0.00 0.00 46 1016.9
20260502152035 54 78 1.7 4.3 0.00 0.00 0.00 47 1017.4
20260502151614 55 195 1.7 4.3 0.00 0.00 0.00 45 1017.2
20260502151039 56 192 2.6 5.2 0.00 0.00 0.00 43 1017.5
20260502150544 55 182 1.7 7.0 0.00 0.00 0.00 44 1017.5
20260502150214 53 69 3.5 7.0 0.00 0.00 0.00 49 1017.4
20260502130543 47 196 0.0 1.7 0.00 0.00 0.00 80 1017.6
20260502130119 47 210 0.9 1.7 0.00 0.00 0.00 80 1017.7
20260502123529 44 150 0.0 0.9 0.00 0.00 0.00 90 1017.4
20260502123213 42 136 0.0 0.9 0.00 0.00 0.00 92 1017.3
20260502122530 41 158 0.0 0.9 0.00 0.00 0.00 92 1017.5
20260502122045 40 196 0.0 0.9 0.00 0.00 0.00 92 1017.4
20260502121700 39 196 0.0 0.9 0.00 0.00 0.00 92 1017.5
20260502121034 39 196 0.0 0.9 0.00 0.00 0.00 92 1017.7
20260502120536 38 196 0.0 0.9 0.00 0.00 0.00 93 1017.5
20260502120139 37 196 0.0 0.9 0.00 0.00 0.00 92 1017.3
20260502115542 37 196 0.0 0.9 0.00 0.00 0.00 92 1017.6
20260502115215 37 196 0.0 0.9 0.00 0.00 0.00 92 1017.5
20260502114623 37 196 0.0 0.9 0.00 0.00 0.00 92 1017.5
20260502114030 36 196 0.0 0.9 0.00 0.00 0.00 92 1017.4
20260502113520 35 196 0.0 0.9 0.00 0.00 0.00 92 1017.2
20260502113130 35 196 0.0 0.9 0.00 0.00 0.00 92 1017.4
20260502112533 35 196 0.0 0.0 0.00 0.00 0.00 92 1017.4
20260502112041 35 196 0.0 0.9 0.00 0.00 0.00 92 1017.2
20260502111634 34 196 0.0 0.9 0.00 0.00 0.00 92 1017.3
20260502111030 34 196 0.0 0.0 0.00 0.00 0.00 92 1017.2
20260502110546 34 196 0.0 0.0 0.00 0.00 0.00 92 1017.2
20260502110200 34 196 0.0 0.9 0.00 0.00 0.00 92 1017.1
20260502105528 34 196 0.0 0.9 0.00 0.00 0.00 92 1017.1
20260502105024 34 196 0.0 0.9 0.00 0.00 0.00 92 1016.9
20260502104653 34 196 0.0 0.9 0.00 0.00 0.00 92 1016.9
20260502104033 34 196 0.0 0.9 0.00 0.00 0.00 92 1017.2
20260502103538 34 196 0.0 0.9 0.00 0.00 0.00 92 1017.1
20260502103138 34 196 0.0 0.9 0.00 0.00 0.00 92 1017.1
20260502102529 34 196 0.0 0.9 0.00 0.00 0.00 92 1016.8
20260502102031 34 196 0.0 0.9 0.00 0.00 0.00 92 1017.0
20260502101633 34 196 0.0 0.0 0.00 0.00 0.00 92 1017.2
20260502101043 34 196 0.0 0.0 0.00 0.00 0.00 92 1017.2
20260502100543 34 196 0.0 0.0 0.00 0.00 0.00 92 1017.2
20260502100204 34 196 0.0 0.0 0.00 0.00 0.00 92 1017.4
20260502091031 34 196 0.0 0.9 0.00 0.00 0.00 92 1017.3
20260502090535 34 196 0.0 0.9 0.00 0.00 0.00 92 1017.4
20260502090137 34 196 0.0 0.9 0.00 0.00 0.00 92 1017.4
20260502071040 35 196 0.0 0.0 0.00 0.00 0.00 91 1016.6
20260502070538 35 196 0.0 0.0 0.00 0.00 0.00 91 1016.7
20260502070204 35 196 0.0 0.9 0.00 0.00 0.00 91 1016.7
20260502065530 36 196 0.0 0.9 0.00 0.00 0.00 91 1016.7
20260502065028 36 196 0.0 0.0 0.00 0.00 0.00 91 1016.8
20260502064700 36 196 0.0 0.0 0.00 0.00 0.00 91 1017.0
20260502064034 36 196 0.0 0.0 0.00 0.00 0.00 91 1017.0
20260502063530 36 196 0.0 0.0 0.00 0.00 0.00 91 1017.0
20260502063153 36 196 0.0 0.9 0.00 0.00 0.00 91 1016.8
20260502062547 36 196 0.0 0.9 0.00 0.00 0.00 91 1017.1
20260502062031 36 196 0.0 0.0 0.00 0.00 0.00 91 1017.0
20260502061658 37 196 0.0 0.0 0.00 0.00 0.00 91 1017.1
20260502061030 36 196 0.0 0.0 0.00 0.00 0.00 91 1017.1
20260502060533 36 196 0.0 0.0 0.00 0.00 0.00 91 1017.1
20260502060220 37 196 0.0 0.0 0.00 0.00 0.00 91 1017.2
20260502055519 37 196 0.0 0.0 0.00 0.00 0.00 91 1017.4
20260502055038 37 196 0.0 0.9 0.00 0.00 0.00 91 1017.3
20260502054652 37 196 0.0 0.9 0.00 0.00 0.00 90 1017.2
20260502054044 37 196 0.0 0.9 0.00 0.00 0.00 91 1017.4
20260502053530 37 196 0.0 0.9 0.00 0.00 0.00 90 1017.4
20260502053155 37 196 0.0 0.9 0.00 0.00 0.00 91 1017.2
20260502052547 37 196 0.0 0.9 0.00 0.00 0.00 91 1017.4
20260502052040 37 196 0.0 1.7 0.00 0.00 0.00 90 1017.4
20260502051657 37 275 0.0 0.9 0.00 0.00 0.00 90 1017.6
20260502051035 38 311 0.0 0.9 0.00 0.00 0.00 90 1017.6
20260502050539 38 323 0.0 0.0 0.00 0.00 0.00 90 1017.5
20260502050251 38 323 0.0 0.0 0.00 0.00 0.00 90 1017.5
20260502045548 38 323 0.0 0.0 0.00 0.00 0.00 89 1017.4
20260502045017 38 323 0.0 0.0 0.00 0.00 0.00 89 1017.5
20260502044655 38 323 0.0 0.0 0.00 0.00 0.00 89 1017.4
20260502044027 39 323 0.0 0.0 0.00 0.00 0.00 89 1017.6
20260502043523 39 323 0.0 0.9 0.00 0.00 0.00 89 1017.6
20260502043139 39 323 0.0 1.7 0.00 0.00 0.00 89 1017.6
20260502042523 39 331 0.0 1.7 0.00 0.00 0.00 89 1017.7
20260502042028 39 350 0.0 0.0 0.00 0.00 0.00 89 1017.7
20260502041604 39 350 0.0 0.0 0.00 0.00 0.00 88 1017.6
20260502041022 40 350 0.0 0.0 0.00 0.00 0.00 88 1017.9
20260502040518 40 350 0.0 0.9 0.00 0.00 0.00 87 1017.8
20260502040150 40 350 0.0 0.9 0.00 0.00 0.00 88 1017.8
20260502035530 41 352 0.0 0.9 0.00 0.00 0.00 87 1017.7
20260502035034 41 352 0.0 0.9 0.00 0.00 0.00 87 1017.7
20260502034644 41 352 0.0 0.0 0.00 0.00 0.00 87 1017.6
20260502034023 41 352 0.0 0.0 0.00 0.00 0.00 86 1017.6
20260502033539 41 355 0.0 0.9 0.00 0.00 0.00 86 1017.5
20260502033125 41 352 0.0 0.9 0.00 0.00 0.00 85 1017.5
20260502032548 42 355 0.0 0.9 0.00 0.00 0.00 84 1017.3
20260502032022 42 355 0.0 0.0 0.00 0.00 0.00 84 1017.4
20260502031640 43 355 0.0 0.9 0.00 0.00 0.00 83 1017.6
20260502031021 43 352 0.0 0.9 0.00 0.00 0.00 83 1017.5
20260502030536 43 352 0.0 0.0 0.00 0.00 0.00 82 1017.5
20260502030137 44 352 0.0 0.0 0.00 0.00 0.00 81 1017.6
20260502025523 44 352 0.0 0.9 0.00 0.00 0.00 81 1017.6
20260502025033 44 352 0.0 0.9 0.00 0.00 0.00 80 1017.6
20260502024653 45 352 0.0 1.7 0.00 0.00 0.00 79 1017.6
20260502024018 45 355 0.0 1.7 0.00 0.00 0.00 79 1017.6
20260502023537 45 352 0.0 0.9 0.00 0.00 0.00 79 1017.6
20260502023145 46 352 0.0 0.9 0.00 0.00 0.00 78 1017.6
20260502022523 46 355 0.0 0.9 0.00 0.00 0.00 78 1017.8
20260502022047 46 355 0.0 0.9 0.00 0.00 0.00 76 1017.7
20260502021650 47 352 0.0 0.9 0.00 0.00 0.00 75 1017.6
20260502021018 47 352 0.0 1.7 0.00 0.00 0.00 74 1017.3
20260502020527 47 352 0.0 1.7 0.00 0.00 0.00 72 1017.0
20260502020120 48 352 0.0 1.7 0.00 0.00 0.00 72 1017.1
20260502015533 48 351 0.0 0.9 0.00 0.00 0.00 72 1016.8
20260502015049 48 351 0.0 0.9 0.00 0.00 0.00 72 1016.9
20260502014656 48 351 0.0 0.9 0.00 0.00 0.00 72 1016.5
20260502014046 49 351 0.0 0.9 0.00 0.00 0.00 71 1016.6
20260502013523 48 290 0.0 2.6 0.00 0.00 0.00 70 1016.6
20260502013151 49 290 0.0 2.6 0.00 0.00 0.00 69 1016.4
20260502012530 49 5 0.0 2.6 0.00 0.00 0.00 68 1016.4
20260502012023 49 5 0.0 2.6 0.00 0.00 0.00 69 1016.3
20260502011705 50 58 0.0 0.9 0.00 0.00 0.00 68 1016.1
20260502011028 50 58 0.0 2.6 0.00 0.00 0.00 67 1016.3
20260502010523 50 60 0.0 2.6 0.00 0.00 0.00 64 1016.0
20260502010202 51 217 0.0 2.6 0.00 0.00 0.00 63 1016.0
20260502005536 51 184 0.0 4.3 0.00 0.00 0.00 62 1015.9
20260502005021 51 40 1.7 7.0 0.00 0.00 0.00 62 1015.7
20260502004641 51 38 0.9 4.3 0.00 0.00 0.00 62 1015.6
20260502004037 52 65 0.0 5.2 0.00 0.00 0.00 62 1015.5
20260502003520 52 284 0.0 5.2 0.00 0.00 0.00 62 1015.4
20260502003149 53 241 0.9 4.3 0.00 0.00 0.00 61 1015.2
20260502002525 53 244 0.9 4.3 0.00 0.00 0.00 61 1015.0
20260502002048 54 328 0.0 2.6 0.00 0.00 0.00 61 1015.0
20260502001640 54 52 0.0 2.6 0.00 0.00 0.00 62 1015.0
20260502001041 54 206 0.9 3.5 0.00 0.00 0.00 62 1015.1
20260502000543 54 38 0.9 3.5 0.00 0.00 0.00 62 1014.7
20260502000148 54 211 0.9 2.6 0.00 0.00 0.00 61 1014.8
20260501235533 55 213 0.9 2.6 0.00 0.00 0.00 61 1014.6
20260501235047 55 123 0.0 4.3 0.00 0.00 0.00 61 1014.5
20260501234653 55 92 1.7 6.1 0.00 0.00 0.00 60 1014.4
20260501234049 55 298 0.9 6.1 0.00 0.00 0.00 59 1014.2